User: anonymous
Location: Caltech
(34.1382°N, 118.1253°W)
Time: 02:18:40
(UTC-07:00)
Language:

Spot 4 Rocket - Orbit

View from above orbital plane
View from above orbital plane
View from above satellite
View from above satellite

Ground track
Ground track

The orbit data is extracted from the following two-line orbital elements,

1 25261U 98017B   14201.90566571  .00000076  00000-0  43216-4 0  6280
2 25261 098.4095 154.8094 0003449 022.2942 045.4133 14.32950871852842
Epoch (UTC): 20 July 2014 21:44:09
Eccentricity: 0.0003449
inclination: 98.4095°
perigee height: 779 km
apogee height: 784 km
right ascension of ascending node: 154.8094°
argument of perigee: 22.2942°
revolutions per day: 14.32950871
mean anomaly at epoch: 45.4133°
orbit number at epoch: 85284

The dashed part of the orbit path shows where the satellite is in the earth's shadow,  

DLR